Regional Weather Roundup
Issued by NWS

Home | Current Version | Previous Version | Text Only | Print | Product List | Glossary On
Versions: 1 2 3 4 5 6 7 8 9 10 11 12 13 14 15 16 17 18 19 20 21 22 23 24 25 26 27 28 29 30 31 32 33 34 35 36 37 38 39 40 41 42 43 44 45 46 47 48 49 50
000
ASUS43 KOAX 210910
RWRNE

WEATHER ROUNDUP FOR NEBRASKA
NATIONAL WEATHER SERVICE OMAHA NE
300 AM CST SUN JAN 21 2018

NOTES: SATELLITE DATA IS BEING USED TO AUGMENT CLOUD COVER ABOVE
       12000 FEET.
       "FAIR" INDICATES FEW OR NO CLOUDS BELOW 12,000 FEET WITH NO
       SIGNIFICANT WEATHER AND/OR OBSTRUCTIONS TO VISIBILITY.


NEZ001>004-019>022-054>056-211000-
NEBRASKA PANHANDLE

CITY           SKY/WX    TMP DP  RH WIND       PRES   REMARKS
SCOTTSBLUFF    CLOUDY    31  29  92 NE15      29.88R WCI  20
ALLIANCE       CLOUDY    30  29  96 NE17      29.87S WCI  18
CHADRON        FLURRIES  30  29  96 NE10      29.95R WCI  21
GORDON         FLURRIES  31  29  92 NE12      29.92R WCI  22
KIMBALL        CLOUDY    29  28  96 NE9       29.83R WCI  21
SIDNEY         CLOUDY    30  28  92 NE12      29.84R WCI  20
$$

NEZ057>060-069>072-079>082-211000-
SOUTHWEST NEBRASKA

CITY           SKY/WX    TMP DP  RH WIND       PRES   REMARKS
NORTH PLATTE   MOCLDY    33  29  85 N17       29.83R WCI  22
IMPERIAL       CLOUDY    31  29  92 NE14      29.82R WCI  21
LEXINGTON      CLOUDY    33  29  85 NE10G16   29.81R WCI  25
MCCOOK         CLOUDY    31  28  89 N14       29.79R WCI  21
OGALLALA       CLOUDY    34  31  88 NE15      29.83F WCI  25
$$

NEZ005>010-023>029-035>040-094-211000-
NORTH CENTRAL NEBRASKA

CITY           SKY/WX    TMP DP  RH WIND       PRES   REMARKS
VALENTINE      CLOUDY    35  31  85 N16G22    29.92S WCI  25
AINSWORTH      CLOUDY    33  33  98 N13       29.90S WCI  24
BROKEN BOW     PTCLDY    33  28  81 N13       29.82S WCI  24
O`NEILL        CLOUDY    33  32  98 N12       29.89F WCI  24
ORD            PTCLDY    32  29  88 N16       29.83S WCI  21
THEDFORD       CLOUDY    34  33  95 N12       29.87S WCI  26
$$

NEZ041-046>049-061>064-073>077-083>087-211000-
SOUTH CENTRAL NEBRASKA

CITY           SKY/WX    TMP DP  RH WIND       PRES   REMARKS
GRAND ISLAND   CLOUDY    34  31  88 N13       29.81F WCI  25
AURORA         CLOUDY    35  31  85 NE9       29.80F WCI  28
HASTINGS       CLOUDY    35  30  82 NE13      29.79S WCI  26
HEBRON         CLOUDY    40  39  98 NE8       29.77S FOG     WCI  34
HOLDREGE       CLOUDY    33  32  94 N14       29.77F WCI  24
KEARNEY        CLOUDY    33  30  88 NE14      29.80S WCI  23
YORK           MOCLDY    37  36  93 NE12      29.81F WCI  30
$$

NEZ011>018-030>034-042>045-211000-
NORTHEAST NEBRASKA

CITY           SKY/WX    TMP DP  RH WIND       PRES   REMARKS
NORFOLK        CLOUDY    36  28  73 N9        29.85F WCI  29
ALBION         CLOUDY    32  30  92 N3        29.86R
BLAIR          CLOUDY    38  35  87 NE9       29.84S WCI  32
COLUMBUS       CLOUDY    35  30  82 N7        29.85R WCI  29
FREMONT        CLOUDY    38  33  85 CALM      29.85S
TEKAMAH        CLOUDY    35  30  82 N8        29.87R WCI  29
WAYNE          CLOUDY    31  30  96 N3        29.88S
$$

NEZ050>053-065>068-078-088>093-211000-
SOUTHEAST NEBRASKA

CITY           SKY/WX    TMP DP  RH WIND       PRES   REMARKS
LINCOLN        CLOUDY    40  36  86 N9        29.84S WCI  34
OMAHA EPPLEY   CLOUDY    37  34  89 N7        29.85S WCI  32
BEATRICE       LGT RAIN  39  39 100 NE9       29.78S VSB 1/2 WCI  32
FALLS CITY     CLOUDY    40  39  97 E7        29.80S FOG
NEBRASKA CITY  CLOUDY    39  39 100 NE5       29.81F FOG
PLATTSMOUTH    CLOUDY    39  39  99 N6        29.83F FOG
$$

NEZ044-045-051>053-067-211000-
OMAHA AREA

CITY           SKY/WX    TMP DP  RH WIND       PRES   REMARKS
OMAHA EPPLEY   CLOUDY    37  34  89 N7        29.85S WCI  32
BLAIR          CLOUDY    38  35  87 NE9       29.84S WCI  32
FREMONT        CLOUDY    38  33  85 CALM      29.85S
MILLARD        CLOUDY    42  38  85 CALM      29.84F
OFFUTT AFB     CLOUDY    40  37  89 N3        29.83S
PLATTSMOUTH    CLOUDY    39  39  99 N6        29.83F FOG
WAHOO          CLOUDY    39  34  83 N6        29.84S WCI  34
$$



USA.gov is the U.S. government's official web portal to all federal, state and local government web resources and services.